George, South Africa

12:35 AM SAST on November 19, 2017 (GMT +0200)
George

Weather History for FAGG - October, 2013

Change the Weather History Date:

Thursday, October 3, 2013

  Actual Average Record
Temperature  
Mean Temperature 58 °F -  
Max Temperature 68 °F 67 °F 82 °F (2000)
Min Temperature 49 °F 50 °F 42 °F (1996)
Degree Days  
Heating Degree Days 6    
Growing Degree Days 8 (Base 50)    
Moisture  
Dew Point 53 °F    
Average Humidity 76    
Maximum Humidity 94    
Minimum Humidity 53    
Precipitation  
Precipitation 0.12 in - - ()
Sea Level Pressure  
Sea Level Pressure 30.09 in    
Wind  
Wind Speed 5 mph ()    
Max Wind Speed 14 mph    
Max Gust Speed -    
Visibility 7.4 miles    
Events Rain    
Averages and records for this station are not official NWS values.
T = Trace of Precipitation, MM = Missing Value Source: Averaged Metar Reports

Daily Weather History Graph

Daily Weather History Graph

Search for Another Location

Airport or City:

Trip Planner

Search our weather history database for the weather conditions in past years. The results will help you decide how hot, cold, wet, or windy it might be!

Date:

Astronomy

Oct. 03, 2013 Rise Set
Actual Time 6:04 AM SAST 6:34 PM SAST
Civil Twilight 5:39 AM SAST 6:59 PM SAST
Nautical Twilight 5:10 AM SAST 7:29 PM SAST
Astronomical Twilight 4:40 AM SAST 7:59 PM SAST
Moon 4:52 AM SAST (10/3) 5:12 PM SAST (10/3)
Length of Visible Light 13h 20m
Length of Day
12h 30m
Waning Crescent, 3% of the Moon is Illuminated
Oct 3
Waning Crescent
Oct 5
New
Oct 12
First Quarter
Oct 19
Full
Oct 27
Last Quarter

Hourly Weather History & Observations

Time (SAST) Temp. Dew Point Humidity Pressure Visibility Wind Dir Wind Speed Gust Speed Precip Events Conditions
12:00 AM 53.6 °F 50.0 °F 88% 30.15 in - West 2.3 mph - N/A   Clear
1:00 AM 50.0 °F 48.2 °F 94% 30.12 in - North 4.6 mph - N/A   Clear
2:00 AM 53 °F 50 °F 87% 30.14 in 6 mi 2.3 mph - -  
2:00 AM 53.6 °F 50.0 °F 88% 30.12 in 6.2 mi Variable 2.3 mph - N/A   Mostly Cloudy
3:00 AM 53.6 °F 50.0 °F 88% 30.12 in 6.2 mi NNW 4.6 mph - N/A   Scattered Clouds
4:00 AM 55.4 °F 51.8 °F 88% 30.12 in 6.2 mi NNW 4.6 mph - N/A   Overcast
5:00 AM 55 °F 52 °F 85% 30.11 in 12 mi NNE 3.5 mph - -   Mostly Cloudy
5:00 AM 55.4 °F 51.8 °F 88% 30.09 in 6.2 mi North 3.5 mph - N/A   Mostly Cloudy
6:00 AM 55.4 °F 50.0 °F 82% 30.12 in 6.2 mi Variable 2.3 mph - N/A   Mostly Cloudy
7:00 AM 57.2 °F 51.8 °F 82% 30.12 in 6.2 mi Variable 2.3 mph - N/A   Mostly Cloudy
8:00 AM 60 °F 51 °F 64% 30.13 in 12 mi Calm Calm - -   Mostly Cloudy
8:00 AM 59.0 °F 51.8 °F 77% 30.12 in 6.2 mi Variable 1.2 mph - N/A   Mostly Cloudy
9:00 AM 62.6 °F 51.8 °F 68% 30.09 in 6.2 mi East 8.1 mph - N/A   Scattered Clouds
10:00 AM 66.2 °F 51.8 °F 60% 30.06 in 6.2 mi East 8.1 mph - N/A   Partly Cloudy
11:00 AM 66 °F 53 °F 53% 30.07 in 12 mi SE 12.7 mph - -   Clear
11:00 AM 66.2 °F 53.6 °F 64% 30.06 in - SE 12.7 mph - N/A   Clear
12:00 PM 66.2 °F 53.6 °F 64% 30.04 in 6.2 mi SSE 13.8 mph - N/A   Partly Cloudy
1:00 PM 66.2 °F 53.6 °F 64% 30.04 in 6.2 mi SSE 8.1 mph - N/A   Partly Cloudy
2:00 PM 67 °F 54 °F 54% 30.03 in 12 mi SSE 9.2 mph - -   Scattered Clouds
2:00 PM 66.2 °F 53.6 °F 64% 30.01 in 6.2 mi SSE 9.2 mph - N/A   Partly Cloudy
3:00 PM 68.0 °F 55.4 °F 64% 30.01 in 6.2 mi SE 6.9 mph - N/A   Partly Cloudy
4:00 PM 66.2 °F 55.4 °F 68% 30.01 in 6.2 mi SE 10.4 mph - N/A   Partly Cloudy
5:00 PM 63 °F 55 °F 67% 30.04 in 12 mi SSE 10.4 mph - -   Scattered Clouds
5:00 PM 62.6 °F 55.4 °F 77% 30.04 in 6.2 mi SSE 10.4 mph - N/A   Partly Cloudy
6:00 PM 62.6 °F 55.4 °F 77% 30.06 in 6.2 mi SSE 6.9 mph - N/A   Mostly Cloudy
7:00 PM 62.6 °F 55.4 °F 77% 30.06 in 6.2 mi South 5.8 mph - N/A   Mostly Cloudy
8:00 PM 62 °F 56 °F 75% 30.11 in 12 mi South 4.6 mph - -   Mostly Cloudy
8:00 PM 62.6 °F 55.4 °F 77% 30.09 in 6.2 mi South 4.6 mph - N/A   Mostly Cloudy
9:00 PM 60.8 °F 55.4 °F 82% 30.12 in 6.2 mi South 8.1 mph - N/A Rain Light Rain
10:00 PM 60.8 °F 57.2 °F 88% 30.12 in 5.6 mi South 9.2 mph - N/A Rain Rain
11:00 PM 59.0 °F 55.4 °F 88% 30.12 in 6.2 mi SSW 4.6 mph - N/A Rain Light Rain